| time (UTC) | temp F | wind direction | speed MPH | gust MPH | rain 1hr in | rain 24hr in | rain mn in | humidity % | barometer mb |
| 20260510000100 | 87 | 149 | 4.0 | 11.0 | 0.00 | 0.00 | 0.00 | 37 | 1008.2 |
| 20260509234554 | 88 | 156 | 5.0 | 11.0 | 0.00 | 0.00 | 0.00 | 36 | 1008.3 |
| 20260509233045 | 88 | 119 | 6.0 | 12.0 | 0.00 | 0.00 | 0.00 | 36 | 1008.3 |
| 20260509231545 | 89 | 149 | 4.0 | 12.0 | 0.00 | 0.00 | 0.00 | 35 | 1008.5 |
| 20260509230046 | 89 | 189 | 6.0 | 13.0 | 0.00 | 0.00 | 0.00 | 34 | 1008.5 |
| 20260509224544 | 89 | 148 | 4.0 | 15.0 | 0.00 | 0.00 | 0.00 | 36 | 1008.6 |
| 20260509223101 | 89 | 132 | 5.0 | 10.0 | 0.00 | 0.00 | 0.00 | 34 | 1008.5 |
| 20260509221545 | 89 | 188 | 4.0 | 13.0 | 0.00 | 0.00 | 0.00 | 34 | 1008.5 |
| 20260509220042 | 89 | 150 | 3.0 | 15.0 | 0.00 | 0.00 | 0.00 | 35 | 1008.6 |
| 20260509214541 | 89 | 153 | 7.0 | 11.0 | 0.00 | 0.00 | 0.00 | 35 | 1008.6 |
| 20260509213046 | 89 | 116 | 6.0 | 12.0 | 0.00 | 0.00 | 0.00 | 37 | 1008.8 |
| 20260509211542 | 89 | 197 | 6.0 | 11.0 | 0.00 | 0.00 | 0.00 | 38 | 1009.1 |
| 20260509210049 | 89 | 210 | 7.0 | 13.0 | 0.00 | 0.00 | 0.00 | 37 | 1009.2 |
| 20260509204549 | 88 | 142 | 7.0 | 12.0 | 0.00 | 0.00 | 0.00 | 39 | 1009.5 |
| 20260509203039 | 88 | 146 | 5.0 | 17.0 | 0.00 | 0.00 | 0.00 | 40 | 1009.7 |
| 20260509201548 | 88 | 126 | 5.0 | 10.0 | 0.00 | 0.00 | 0.00 | 42 | 1010.0 |
| 20260509200059 | 88 | 145 | 5.0 | 13.0 | 0.00 | 0.00 | 0.00 | 41 | 1010.1 |
| 20260509194544 | 87 | 179 | 5.0 | 11.0 | 0.00 | 0.00 | 0.00 | 41 | 1010.3 |
| 20260509193043 | 87 | 153 | 5.0 | 12.0 | 0.00 | 0.00 | 0.00 | 45 | 1010.5 |
| 20260509191542 | 87 | 124 | 5.0 | 11.0 | 0.00 | 0.00 | 0.00 | 40 | 1010.7 |
| 20260509190041 | 86 | 161 | 6.0 | 13.0 | 0.00 | 0.00 | 0.00 | 42 | 1010.8 |
| 20260509184556 | 86 | 197 | 5.0 | 13.0 | 0.00 | 0.00 | 0.00 | 41 | 1011.0 |
| 20260509183043 | 86 | 152 | 3.0 | 9.0 | 0.00 | 0.00 | 0.00 | 43 | 1010.9 |
| 20260509181547 | 85 | 198 | 4.0 | 10.0 | 0.00 | 0.00 | 0.00 | 45 | 1011.2 |
| 20260509180039 | 85 | 192 | 4.0 | 8.0 | 0.00 | 0.00 | 0.00 | 49 | 1011.5 |
| 20260509174543 | 84 | 177 | 5.0 | 9.0 | 0.00 | 0.00 | 0.00 | 50 | 1011.7 |
| 20260509173052 | 84 | 148 | 4.0 | 9.0 | 0.00 | 0.00 | 0.00 | 53 | 1012.0 |
| 20260509171543 | 83 | 199 | 1.0 | 11.0 | 0.00 | 0.00 | 0.00 | 51 | 1012.1 |
| 20260509170042 | 82 | 175 | 1.0 | 9.0 | 0.00 | 0.00 | 0.00 | 53 | 1012.1 |
| 20260509164540 | 82 | 205 | 5.0 | 11.0 | 0.00 | 0.00 | 0.00 | 56 | 1012.2 |
| 20260509163044 | 81 | 203 | 2.0 | 10.0 | 0.00 | 0.00 | 0.00 | 59 | 1012.2 |
| 20260509161544 | 80 | 185 | 2.0 | 11.0 | 0.00 | 0.00 | 0.00 | 59 | 1012.2 |
| 20260509160046 | 79 | 187 | 3.0 | 9.0 | 0.00 | 0.00 | 0.00 | 63 | 1012.3 |
| 20260509154543 | 79 | 232 | 5.0 | 9.0 | 0.00 | 0.00 | 0.00 | 64 | 1012.3 |
| 20260509153045 | 78 | 165 | 3.0 | 9.0 | 0.00 | 0.00 | 0.00 | 66 | 1012.3 |
| 20260509151544 | 77 | 263 | 3.0 | 11.0 | 0.00 | 0.00 | 0.00 | 68 | 1012.2 |
| 20260509150046 | 76 | 298 | 3.0 | 13.0 | 0.00 | 0.00 | 0.00 | 71 | 1012.1 |
| 20260509144601 | 74 | 213 | 7.0 | 14.0 | 0.00 | 0.00 | 0.00 | 73 | 1012.1 |
| 20260509143044 | 73 | 183 | 7.0 | 13.0 | 0.00 | 0.00 | 0.00 | 76 | 1012.1 |
| 20260509141542 | 71 | 257 | 7.0 | 14.0 | 0.00 | 0.00 | 0.00 | 79 | 1012.3 |
| 20260509140040 | 69 | 211 | 7.0 | 15.0 | 0.00 | 0.00 | 0.00 | 83 | 1012.2 |
| 20260509134601 | 68 | 217 | 5.0 | 11.0 | 0.00 | 0.00 | 0.00 | 84 | 1012.2 |
| 20260509133047 | 68 | 245 | 7.0 | 15.0 | 0.00 | 0.00 | 0.00 | 84 | 1012.0 |
| 20260509131542 | 67 | 236 | 4.0 | 14.0 | 0.00 | 0.00 | 0.00 | 86 | 1012.0 |
| 20260509130054 | 66 | 212 | 7.0 | 12.0 | 0.00 | 0.00 | 0.00 | 88 | 1011.8 |
| 20260509124543 | 65 | 221 | 7.0 | 14.0 | 0.00 | 0.00 | 0.00 | 89 | 1011.6 |
| 20260509123048 | 64 | 178 | 7.0 | 12.0 | 0.00 | 0.00 | 0.00 | 89 | 1011.4 |
| 20260509121601 | 63 | 213 | 7.0 | 14.0 | 0.00 | 0.00 | 0.00 | 89 | 1011.4 |
| 20260509120043 | 63 | 202 | 8.0 | 13.0 | 0.00 | 0.00 | 0.00 | 88 | 1011.2 |
| 20260509114542 | 63 | 224 | 8.0 | 14.0 | 0.00 | 0.00 | 0.00 | 87 | 1011.0 |
| 20260509113040 | 62 | 199 | 7.0 | 13.0 | 0.00 | 0.00 | 0.00 | 86 | 1010.7 |
| 20260509111551 | 62 | 200 | 7.0 | 11.0 | 0.00 | 0.00 | 0.00 | 86 | 1010.5 |
| 20260509110046 | 62 | 207 | 6.0 | 14.0 | 0.00 | 0.00 | 0.00 | 86 | 1010.5 |
| 20260509104547 | 62 | 227 | 5.0 | 12.0 | 0.00 | 0.00 | 0.00 | 86 | 1010.5 |
| 20260509103054 | 62 | 218 | 6.0 | 11.0 | 0.00 | 0.00 | 0.00 | 87 | 1010.9 |
| 20260509101617 | 62 | 188 | 4.0 | 11.0 | 0.00 | 0.00 | 0.00 | 86 | 1010.9 |
| 20260509100044 | 62 | 184 | 5.0 | 11.0 | 0.00 | 0.00 | 0.00 | 85 | 1011.0 |
| 20260509094541 | 63 | 205 | 5.0 | 11.0 | 0.00 | 0.00 | 0.00 | 82 | 1011.1 |
| 20260509093043 | 63 | 170 | 6.0 | 12.0 | 0.00 | 0.00 | 0.00 | 80 | 1011.1 |
| 20260509091544 | 64 | 194 | 5.0 | 10.0 | 0.00 | 0.00 | 0.00 | 77 | 1011.0 |
| 20260509090043 | 64 | 210 | 3.0 | 9.0 | 0.00 | 0.00 | 0.00 | 76 | 1011.1 |
| 20260509084544 | 64 | 158 | 4.0 | 9.0 | 0.00 | 0.00 | 0.00 | 76 | 1011.0 |
| 20260509083044 | 65 | 197 | 5.0 | 8.0 | 0.00 | 0.00 | 0.00 | 75 | 1011.2 |
| 20260509081545 | 65 | 118 | 4.0 | 12.0 | 0.00 | 0.00 | 0.00 | 75 | 1011.5 |
| 20260509080042 | 65 | 109 | 5.0 | 10.0 | 0.00 | 0.00 | 0.00 | 75 | 1011.8 |
| 20260509074546 | 65 | 107 | 2.0 | 6.0 | 0.00 | 0.00 | 0.00 | 75 | 1011.7 |
| 20260509073054 | 65 | 68 | 4.0 | 12.0 | 0.00 | 0.00 | 0.00 | 75 | 1012.1 |
| 20260509071553 | 66 | 86 | 4.0 | 14.0 | 0.00 | 0.00 | 0.00 | 78 | 1012.7 |
| 20260509070047 | 66 | 66 | 5.0 | 19.0 | 0.00 | 0.00 | 0.00 | 81 | 1012.9 |
| 20260509064557 | 67 | 29 | 7.0 | 17.0 | 0.00 | 0.00 | 0.00 | 90 | 1013.1 |
| 20260509063045 | 67 | 34 | 3.0 | 11.0 | 0.00 | 0.00 | 0.00 | 91 | 1012.7 |
| 20260509061540 | 66 | 360 | 2.0 | 7.0 | 0.00 | 0.00 | 0.00 | 91 | 1012.1 |
| 20260509060040 | 66 | 159 | 2.0 | 8.0 | 0.00 | 0.00 | 0.00 | 90 | 1010.9 |
| 20260509054545 | 67 | 194 | 3.0 | 9.0 | 0.00 | 0.00 | 0.00 | 90 | 1010.3 |
| 20260509053048 | 67 | 171 | 4.0 | 11.0 | 0.00 | 0.00 | 0.00 | 90 | 1010.1 |
| 20260509051542 | 67 | 175 | 6.0 | 14.0 | 0.00 | 0.00 | 0.00 | 89 | 1010.1 |
| 20260509050041 | 67 | 146 | 8.0 | 17.0 | 0.00 | 0.00 | 0.00 | 89 | 1010.1 |
| 20260509044540 | 68 | 141 | 7.0 | 15.0 | 0.00 | 0.00 | 0.00 | 88 | 1010.3 |
| 20260509043048 | 68 | 165 | 6.0 | 14.0 | 0.00 | 0.00 | 0.00 | 87 | 1010.2 |
| 20260509041610 | 69 | 153 | 6.0 | 15.0 | 0.00 | 0.00 | 0.00 | 86 | 1010.0 |
| 20260509040045 | 69 | 175 | 7.0 | 17.0 | 0.00 | 0.00 | 0.00 | 85 | 1010.0 |
| 20260509034543 | 69 | 143 | 7.0 | 15.0 | 0.00 | 0.00 | 0.00 | 85 | 1009.8 |
| 20260509033047 | 69 | 179 | 7.0 | 15.0 | 0.00 | 0.00 | 0.00 | 84 | 1009.5 |
| 20260509031552 | 70 | 148 | 6.0 | 15.0 | 0.00 | 0.00 | 0.00 | 83 | 1009.5 |
| 20260509030046 | 70 | 194 | 7.0 | 13.0 | 0.00 | 0.00 | 0.00 | 82 | 1009.3 |
| 20260509024543 | 70 | 167 | 4.0 | 12.0 | 0.00 | 0.00 | 0.00 | 81 | 1009.2 |
| 20260509023100 | 71 | 155 | 4.0 | 13.0 | 0.00 | 0.00 | 0.00 | 79 | 1009.3 |
| 20260509021542 | 72 | 175 | 4.0 | 10.0 | 0.00 | 0.00 | 0.00 | 77 | 1009.2 |
| 20260509020054 | 72 | 173 | 3.0 | 7.0 | 0.00 | 0.00 | 0.00 | 75 | 1009.1 |
| 20260509014545 | 73 | 153 | 2.0 | 8.0 | 0.00 | 0.00 | 0.00 | 74 | 1009.0 |
| 20260509013045 | 74 | 153 | 3.0 | 8.0 | 0.00 | 0.00 | 0.00 | 73 | 1008.8 |
| 20260509011542 | 75 | 134 | 5.0 | 11.0 | 0.00 | 0.00 | 0.00 | 71 | 1008.6 |
| 20260509010043 | 76 | 165 | 4.0 | 11.0 | 0.00 | 0.00 | 0.00 | 68 | 1008.5 |
| 20260509004543 | 77 | 200 | 4.0 | 12.0 | 0.00 | 0.00 | 0.00 | 67 | 1008.2 |
| 20260509003040 | 78 | 190 | 4.0 | 12.0 | 0.00 | 0.00 | 0.00 | 64 | 1008.2 |
| 20260509001542 | 79 | 190 | 4.0 | 8.0 | 0.00 | 0.00 | 0.00 | 59 | 1008.1 |